Tracking 29933 objects as of 3-Dec-2024
HD Live streaming from Space Station
objects crossing your sky now

ARIANE 44LP DEB

Track ARIANE 44LP DEB now!


NORAD ID: 33546
Int'l Code: 1988-109V
Perigee: 708.9 km
Apogee: 35,994.4 km
Inclination: 7.0 °
Period: 644.8 minutes
Semi major axis: 24722 km
RCS: 0.0126 m2 (small)
Launch date: December 11, 1988
Source: France (FR)
Launch site: FRENCH GUIANA (FRGUI)

Note: This is SATELLITE DEBRIS
Your satellite tracking list
Your tracking list is empty




NASA's NSSDC Master Catalog

Two Line Element Set (TLE):
1 33546U 88109V   24331.19424528 -.00000156  00000-0  22645-3 0  9990
2 33546   7.0304  83.3244 7136279   6.1320 157.8706  2.23337394  8747
Source of the keplerian elements: AFSPC